Location: Lake Arresoe
(56.0000°N, 12.5000°E)
Time: 17:14:21
(UTC+02:00)

Cosmos 2058 - Pass Details

Date: 26 July 2021
Orbit: 560 x 584 km, 82.5° (Epoch: 21 September)

Event Time Altitude Azimuth Distance (km) Brightness Sun altitude
Rises 23:11:36 0° 235° (SW) 2,793 6.4 -10.3°
Reaches altitude 10° 23:14:19 10° 253° (WSW) 1,902 5.7 -10.5°
Maximum altitude 23:17:22 19° 300° (WNW) 1,410 5.7 -10.7°
Drops below altitude 10° 23:20:26 10° 347° (NNW) 1,919 7.0 -10.9°
Sets 23:23:12 0° 5° (N) 2,826 7.5 -11.0°
